This demonstration page uses our WeatherBlox Daily Observations layout. Learn more.

Left ArrowRight Arrow

44.31136, -96.79839

Hourly Observations for August 29, 2022

Temp ( °F °C ) Dew Point ( °F °C ) Humidity (%) Winds ( mph kmh ) Pressure ( in mb ) Visibility ( mi km ) Precip ( " mm )
12:15 am 00:15 undefined 66 19 54 12 64 64 W 5 7 29.71 1006 10 16 0.00 0.00
12:35 am 00:35 undefined 66 19 52 11 60 60 W 7 11 29.72 1007 10 16 0.00 0.00
12:55 am 00:55 undefined 66 19 52 11 60 60 W 8 13 29.72 1007 10 16 0.00 0.00
1:15 am 01:15 undefined 66 19 52 11 60 60 W 8 13 29.73 1007 10 16 0.00 0.00
1:35 am 01:35 undefined 68 20 50 10 53 53 W 9 15 29.74 1007 10 16 0.00 0.00
1:55 am 01:55 undefined 68 20 52 11 56 56 W 13 20 29.74 1007 10 16 0.00 0.00
2:15 am 02:15 undefined 66 19 52 11 60 60 W 10 17 29.75 1008 10 16 0.00 0.00
2:35 am 02:35 undefined 66 19 52 11 60 60 W 10 17 29.76 1008 10 16 0.00 0.00
2:55 am 02:55 undefined 64 18 52 11 64 64 W 8 13 29.77 1008 10 16 0.00 0.00
3:15 am 03:15 undefined 63 17 52 11 68 68 WNW 9 15 29.78 1009 10 16 0.00 0.00
3:35 am 03:35 undefined 63 17 52 11 68 68 WNW 8 13 29.78 1009 10 16 0.00 0.00
3:55 am 03:55 undefined 61 16 52 11 72 72 WNW 9 15 29.80 1009 10 16 0.00 0.00
4:15 am 04:15 undefined 59 15 54 12 82 82 WNW 7 11 29.81 1009 10 16 0.00 0.00
4:35 am 04:35 undefined 59 15 54 12 82 82 WNW 6 9 29.82 1010 10 16 0.00 0.00
4:55 am 04:55 undefined 59 15 54 12 82 82 WNW 6 9 29.82 1010 10 16 0.00 0.00
5:15 am 05:15 undefined 59 15 54 12 82 82 WNW 8 13 29.83 1010 10 16 0.00 0.00
5:35 am 05:35 undefined 59 15 54 12 82 82 W 6 9 29.83 1010 10 16 0.00 0.00
5:55 am 05:55 undefined 59 15 54 12 82 82 WNW 9 15 29.84 1010 10 16 0.00 0.00
6:15 am 06:15 undefined 59 15 54 12 82 82 WNW 8 13 29.84 1010 10 16 0.00 0.00
6:35 am 06:35 undefined 59 15 54 12 82 82 W 6 9 29.85 1011 10 16 0.00 0.00
6:55 am 06:55 undefined 59 15 54 12 82 82 WNW 8 13 29.84 1010 10 16 0.00 0.00
7:15 am 07:15 Sunny 59 15 55 13 88 88 NW 8 13 29.86 1011 10 16 0.00 0.00
7:35 am 07:35 Sunny 61 16 55 13 82 82 WNW 6 9 29.85 1011 10 16 0.00 0.00
7:55 am 07:55 Sunny 61 16 54 12 77 77 W 6 9 29.86 1011 10 16 0.00 0.00
8:15 am 08:15 Sunny 63 17 55 13 77 77 WNW 8 13 29.86 1011 10 16 0.00 0.00
8:35 am 08:35 undefined 64 18 55 13 73 73 WNW 8 13 29.87 1012 10 16 0.00 0.00
8:55 am 08:55 undefined 66 19 55 13 68 68 W 8 13 29.87 1012 10 16 0.00 0.00
9:15 am 09:15 undefined 68 20 55 13 64 64 WSW 9 15 29.87 1011 10 16 0.00 0.00
9:35 am 09:35 undefined 68 20 55 13 64 64 WSW 10 17 29.88 1012 10 16 0.00 0.00
9:55 am 09:55 undefined 70 21 54 12 56 56 W 10 17 29.87 1011 10 16 0.00 0.00
10:15 am 10:15 undefined 70 21 55 13 60 60 W 12 19 29.89 1012 10 16 0.00 0.00
10:35 am 10:35 undefined 72 22 54 12 53 53 W 14 22 29.88 1012 10 16 0.00 0.00
10:55 am 10:55 undefined 73 23 54 12 50 50 WNW 15 24 29.89 1012 10 16 0.00 0.00
11:15 am 11:15 undefined 73 23 54 12 50 50 WNW 15 24 29.89 1012 10 16 0.00 0.00
11:35 am 11:35 undefined 75 24 54 12 47 47 W 14 22 29.88 1012 10 16 0.00 0.00
11:55 am 11:55 undefined 75 24 54 12 47 47 NW 16 26 29.88 1012 10 16 0.00 0.00
12:15 pm 12:15 undefined 77 25 48 9 36 36 NW 23 37 29.87 1012 10 16 0.00 0.00
12:35 pm 12:35 undefined 79 26 48 9 34 34 WNW 15 24 29.87 1011 10 16 0.00 0.00
12:55 pm 12:55 undefined 79 26 48 9 34 34 WNW 18 30 29.87 1011 10 16 0.00 0.00
1:15 pm 13:15 undefined 79 26 48 9 34 34 WNW 16 26 29.87 1011 10 16 0.00 0.00
1:35 pm 13:35 undefined 79 26 48 9 34 34 WNW 22 35 29.87 1011 10 16 0.00 0.00
1:55 pm 13:55 undefined 81 27 48 9 32 32 WNW 20 31 29.86 1011 10 16 0.00 0.00
2:15 pm 14:15 undefined 81 27 48 9 32 32 NW 25 41 29.86 1011 10 16 0.00 0.00
2:35 pm 14:35 undefined 81 27 48 9 32 32 WNW 25 41 29.85 1011 10 16 0.00 0.00
2:55 pm 14:55 undefined 81 27 48 9 32 32 W 24 39 29.85 1011 10 16 0.00 0.00
3:15 pm 15:15 undefined 81 27 48 9 32 32 WNW 23 37 29.85 1011 10 16 0.00 0.00
3:35 pm 15:35 undefined 81 27 48 9 32 32 WNW 22 35 29.85 1011 10 16 0.00 0.00
3:55 pm 15:55 undefined 81 27 46 8 30 30 WNW 20 31 29.85 1011 10 16 0.00 0.00
4:15 pm 16:15 undefined 81 27 46 8 30 30 WNW 24 39 29.85 1011 10 16 0.00 0.00
4:35 pm 16:35 undefined 81 27 46 8 30 30 WNW 25 41 29.85 1011 10 16 0.00 0.00
4:55 pm 16:55 undefined 81 27 46 8 30 30 WNW 22 35 29.85 1011 10 16 0.00 0.00
5:15 pm 17:15 undefined 81 27 45 7 28 28 NW 25 41 29.85 1011 10 16 0.00 0.00
5:35 pm 17:35 undefined 81 27 45 7 28 28 NW 21 33 29.85 1011 10 16 0.00 0.00
5:55 pm 17:55 undefined 79 26 45 7 30 30 NW 22 35 29.86 1011 10 16 0.00 0.00
6:15 pm 18:15 undefined 79 26 45 7 30 30 NW 22 35 29.87 1011 10 16 0.00 0.00
6:35 pm 18:35 undefined 77 25 45 7 32 32 NW 16 26 29.87 1012 10 16 0.00 0.00
6:55 pm 18:55 undefined 77 25 45 7 32 32 NW 16 26 29.89 1012 10 16 0.00 0.00
7:15 pm 19:15 undefined 75 24 45 7 34 34 NW 14 22 29.89 1012 10 16 0.00 0.00
7:35 pm 19:35 undefined 73 23 46 8 38 38 NNW 12 19 29.91 1013 10 16 0.00 0.00
7:55 pm 19:55 undefined 72 22 46 8 41 41 NNW 9 15 29.92 1013 10 16 0.00 0.00
8:15 pm 20:15 undefined 68 20 46 8 46 46 NNW 9 15 29.95 1014 10 16 0.00 0.00
8:35 pm 20:35 undefined 64 18 46 8 52 52 NNW 8 13 29.96 1015 10 16 0.00 0.00
8:55 pm 20:55 undefined 63 17 48 9 59 59 NW 8 13 29.97 1015 10 16 0.00 0.00
9:15 pm 21:15 undefined 63 17 46 8 55 55 WNW 6 9 29.99 1015 10 16 0.00 0.00
9:35 pm 21:35 undefined 61 16 48 9 63 63 NW 7 11 29.99 1016 10 16 0.00 0.00
9:55 pm 21:55 undefined 59 15 48 9 67 67 NW 7 11 30.01 1016 10 16 0.00 0.00
10:15 pm 22:15 undefined 59 15 48 9 67 67 NW 8 13 30.01 1016 10 16 0.00 0.00
10:35 pm 22:35 undefined 57 14 48 9 72 72 NW 9 15 30.03 1017 10 16 0.00 0.00
10:55 pm 22:55 undefined 61 16 48 9 63 63 WNW 8 13 30.02 1017 10 16 0.00 0.00
11:15 pm 23:15 undefined 61 16 48 9 63 63 WNW 8 13 30.02 1017 10 16 0.00 0.00
11:35 pm 23:35 undefined 61 16 48 9 63 63 WNW 8 13 30.03 1017 10 16 0.00 0.00
11:55 pm 23:55 undefined 57 14 48 9 72 72 NW 7 11 30.04 1017 10 16 0.00 0.00

Powered by AerisWeather